TimeCDT,TemperatureF,Dew PointF,Humidity,Sea Level PressureIn,VisibilityMPH,Wind Direction,Wind SpeedMPH,Gust SpeedMPH,PrecipitationIn,Events,Conditions,WindDirDegrees,DateUTC
12:53 AM,71.1,62.1,73,30.06,9.0,ENE,3.5,-,N/A,,Clear,70,2012-09-13 05:53:00
1:53 AM,69.1,62.1,78,30.06,8.0,ENE,3.5,-,N/A,,Clear,70,2012-09-13 06:53:00
2:53 AM,69.1,61.0,75,30.05,8.0,ENE,3.5,-,N/A,,Clear,70,2012-09-13 07:53:00
3:53 AM,68.0,61.0,78,30.06,8.0,ENE,3.5,-,N/A,,Clear,60,2012-09-13 08:53:00
4:53 AM,70.0,62.1,76,30.06,8.0,Calm,Calm,-,N/A,,Mostly Cloudy,0,2012-09-13 09:53:00
5:53 AM,72.0,62.1,71,30.07,9.0,Calm,Calm,-,N/A,,Overcast,0,2012-09-13 10:53:00
6:53 AM,72.0,63.0,73,30.09,8.0,ENE,5.8,-,N/A,,Overcast,70,2012-09-13 11:53:00
7:53 AM,72.0,64.0,76,30.09,7.0,East,6.9,-,N/A,,Overcast,80,2012-09-13 12:53:00
8:25 AM,73.4,64.4,73,30.11,8.0,East,5.8,-,N/A,,Overcast,100,2012-09-13 13:25:00
8:53 AM,73.9,66.0,76,30.11,9.0,ESE,5.8,-,N/A,,Overcast,110,2012-09-13 13:53:00
9:53 AM,75.0,66.9,76,30.12,6.0,East,5.8,-,N/A,,Haze,90,2012-09-13 14:53:00
10:53 AM,73.0,69.1,87,30.14,3.0,East,5.8,-,0.00,Rain,Light Rain,90,2012-09-13 15:53:00
11:45 AM,73.4,69.8,88,30.16,5.0,NE,4.6,-,0.00,Thunderstorm,Unknown,50,2012-09-13 16:45:00
11:53 AM,73.0,69.1,87,30.15,5.0,NE,9.2,17.3,0.00,Thunderstorm,Overcast,50,2012-09-13 16:53:00
12:04 PM,73.4,66.2,78,30.16,8.0,ENE,4.6,-,N/A,Thunderstorm,Thunderstorm,70,2012-09-13 17:04:00
12:21 PM,71.6,68.0,88,30.17,10.0,Variable,6.9,-,N/A,Thunderstorm,Overcast,0,2012-09-13 17:21:00
12:33 PM,73.4,68.0,83,30.17,9.0,Variable,3.5,-,N/A,Thunderstorm,Mostly Cloudy,0,2012-09-13 17:33:00
12:53 PM,73.9,68.0,82,30.14,10.0,Calm,Calm,-,N/A,Thunderstorm,Mostly Cloudy,0,2012-09-13 17:53:00
1:19 PM,78.8,68.0,69,30.12,10.0,ESE,5.8,-,N/A,,Mostly Cloudy,120,2012-09-13 18:19:00
1:53 PM,82.0,64.9,56,30.09,10.0,Variable,6.9,-,N/A,,Clear,0,2012-09-13 18:53:00
2:53 PM,82.9,64.9,54,30.07,10.0,East,11.5,-,N/A,,Clear,90,2012-09-13 19:53:00
3:53 PM,84.0,66.0,55,30.04,10.0,NE,3.5,-,N/A,,Clear,50,2012-09-13 20:53:00
4:53 PM,84.0,64.9,53,30.04,10.0,SSE,3.5,-,N/A,,Clear,150,2012-09-13 21:53:00
5:53 PM,82.9,66.0,56,30.04,10.0,Calm,Calm,-,N/A,,Clear,0,2012-09-13 22:53:00
6:53 PM,80.1,68.0,67,30.06,10.0,SE,4.6,-,N/A,,Clear,140,2012-09-13 23:53:00
7:53 PM,75.9,69.1,79,30.08,10.0,Calm,Calm,-,N/A,,Clear,0,2012-09-14 00:53:00
8:53 PM,75.0,69.1,82,30.10,10.0,Calm,Calm,-,N/A,,Mostly Cloudy,0,2012-09-14 01:53:00
9:53 PM,73.9,70.0,87,30.12,10.0,SSW,4.6,-,N/A,Thunderstorm,Thunderstorm,200,2012-09-14 02:53:00
10:08 PM,75.2,69.8,83,30.13,10.0,SW,3.5,-,N/A,,Overcast,230,2012-09-14 03:08:00
10:12 PM,75.2,69.8,83,30.13,10.0,SW,5.8,-,N/A,Thunderstorm,Overcast,220,2012-09-14 03:12:00
10:20 PM,73.4,69.8,88,30.14,4.0,West,9.2,17.3,0.04,Rain-Thunderstorm,Rain,270,2012-09-14 03:20:00
10:25 PM,73.4,69.8,88,30.14,2.0,West,8.1,-,0.08,Rain-Thunderstorm,Heavy Rain,260,2012-09-14 03:25:00
10:32 PM,71.6,71.6,100,30.15,1.5,West,10.4,-,0.14,Rain-Thunderstorm,Heavy Rain,260,2012-09-14 03:32:00
10:39 PM,71.6,71.6,100,30.15,1.5,WSW,5.8,-,0.21,Rain,Heavy Rain,240,2012-09-14 03:39:00
10:49 PM,71.6,69.8,94,30.16,3.0,West,5.8,-,0.23,Rain,Light Rain,270,2012-09-14 03:49:00
10:53 PM,71.1,69.1,93,30.14,3.0,West,4.6,-,0.25,Rain,Rain,270,2012-09-14 03:53:00
10:55 PM,71.6,69.8,94,30.15,2.5,West,3.5,-,0.00,Rain-Thunderstorm,Thunderstorms and Rain,280,2012-09-14 03:55:00
11:13 PM,69.8,69.8,100,30.15,6.0,Calm,Calm,-,0.03,Rain-Thunderstorm,Light Thunderstorms and Rain,0,2012-09-14 04:13:00
11:38 PM,69.8,69.8,100,30.15,4.0,Calm,Calm,-,0.06,Rain,Rain,0,2012-09-14 04:38:00
11:53 PM,71.1,69.1,93,30.14,6.0,Calm,Calm,-,0.08,Rain,Rain,0,2012-09-14 04:53:00